Weather History for KPWC - July, 2013

Change the Weather History Date:

Tuesday, July 23, 2013

  Actual Average Record
Temperature  
Mean Temperature 61 °F -  
Max Temperature 71 °F 77 °F 93 °F (2006)
Min Temperature 51 °F 54 °F 44 °F (2002)
Degree Days  
Heating Degree Days 4    
Growing Degree Days 11 (Base 50)    
Moisture  
Dew Point 52 °F    
Average Humidity 72    
Maximum Humidity 100    
Minimum Humidity 46    
Precipitation  
Precipitation 0.00 in - - ()
Sea Level Pressure  
Sea Level Pressure 30.04 in    
Wind  
Wind Speed 4 mph (North)    
Max Wind Speed 9 mph    
Max Gust Speed -    
Visibility 10 miles    
Events      
Averages and records for this station are not official NWS values.
T = Trace of Precipitation, MM = Missing Value Source: NWS Daily Summary

Daily Weather History Graph

Daily Weather History Graph

Search for Another Location

Airport or City:

Trip Planner

Search our weather history database for the weather conditions in past years. The results will help you decide how hot, cold, wet, or windy it might be!

Date:

Astronomy

Jul. 23, 2013 Rise Set
Actual Time 5:47 AM CDT 8:59 PM CDT
Civil Twilight 5:10 AM CDT 9:36 PM CDT
Nautical Twilight 4:23 AM CDT 10:23 PM CDT
Astronomical Twilight 3:23 AM CDT 11:22 PM CDT
Moon 9:17 PM CDT (7/23) 7:05 AM CDT (7/23)
Length of Visible Light 16h 25m
Length of Day
15h 12m
Full, 99% of the Moon is Illuminated
Jul 23
Full
Jul 29
Last Quarter
Aug 6
New
Aug 14
First Quarter
Aug 20
Full

Hourly Weather History & Observations

Time (CDT) Temp. Dew Point Humidity Pressure Visibility Wind Dir Wind Speed Gust Speed Precip Events Conditions
12:13 AM 59.0 °F 53.6 °F 82% 29.95 in 10.0 mi WNW 3.5 mph - N/A   Clear
12:32 AM 59.0 °F 53.6 °F 82% 29.95 in 10.0 mi WNW 4.6 mph - N/A   Clear
12:53 AM 57.2 °F 53.6 °F 88% 29.95 in 10.0 mi WNW 3.5 mph - N/A   Clear
1:12 AM 57.2 °F 53.6 °F 88% 29.95 in 10.0 mi WNW 3.5 mph - N/A   Clear
1:32 AM 57.2 °F 53.6 °F 88% 29.96 in 10.0 mi Calm Calm - N/A   Clear
1:53 AM 57.2 °F 53.6 °F 88% 29.96 in 10.0 mi NW 3.5 mph - N/A   Clear
2:13 AM 57.2 °F 53.6 °F 88% 29.96 in 10.0 mi NNW 4.6 mph - N/A   Clear
2:33 AM 57.2 °F 53.6 °F 88% 29.96 in 10.0 mi NW 4.6 mph - N/A   Clear
2:53 AM 55.4 °F 53.6 °F 94% 29.97 in 10.0 mi Calm Calm - N/A   Clear
3:13 AM 55.4 °F 53.6 °F 94% 29.97 in 10.0 mi NW 3.5 mph - N/A   Clear
3:33 AM 55.4 °F 53.6 °F 94% 29.97 in 10.0 mi NW 5.8 mph - N/A   Clear
3:52 AM 55.4 °F 53.6 °F 94% 29.97 in 10.0 mi NNW 3.5 mph - N/A   Scattered Clouds
4:13 AM 55.4 °F 53.6 °F 94% 29.97 in 10.0 mi NNW 4.6 mph - N/A   Clear
4:32 AM 55.4 °F 51.8 °F 88% 29.97 in 10.0 mi North 4.6 mph - N/A   Clear
4:53 AM 53.6 °F 51.8 °F 94% 29.98 in 10.0 mi NNW 4.6 mph - N/A   Clear
5:12 AM 55.4 °F 53.6 °F 94% 29.99 in 10.0 mi NNW 3.5 mph - N/A   Clear
5:33 AM 55.4 °F 51.8 °F 88% 29.99 in 10.0 mi North 5.8 mph - N/A   Clear
5:53 AM 51.8 °F 51.8 °F 100% 29.99 in 10.0 mi Calm Calm - N/A   Clear
6:12 AM 51.8 °F 50.0 °F 94% 30.00 in 10.0 mi Calm Calm - N/A   Clear
6:32 AM 53.6 °F 53.6 °F 100% 30.01 in 10.0 mi Calm Calm - N/A   Clear
6:52 AM 55.4 °F 51.8 °F 88% 30.02 in 10.0 mi Calm Calm - N/A   Clear
7:11 AM 57.2 °F 51.8 °F 82% 30.02 in 10.0 mi Calm Calm - N/A   Clear
7:33 AM 57.2 °F 51.8 °F 82% 30.03 in 10.0 mi NE 4.6 mph - N/A   Clear
7:53 AM 57.2 °F 51.8 °F 82% 30.03 in 10.0 mi NE 5.8 mph - N/A   Clear
8:13 AM 59.0 °F 51.8 °F 77% 30.05 in 10.0 mi NNE 6.9 mph - N/A   Clear
8:32 AM 60.8 °F 51.8 °F 72% 30.05 in 10.0 mi NNE 8.1 mph - N/A   Clear
8:52 AM 60.8 °F 51.8 °F 72% 30.06 in 10.0 mi North 8.1 mph - N/A   Clear
9:12 AM 60.8 °F 51.8 °F 72% 30.06 in 10.0 mi North 8.1 mph - N/A   Clear
9:33 AM 62.6 °F 51.8 °F 68% 30.07 in 10.0 mi NE 4.6 mph - N/A   Clear
9:52 AM 62.6 °F 50.0 °F 63% 30.07 in 10.0 mi NNE 6.9 mph - N/A   Clear
10:13 AM 62.6 °F 50.0 °F 63% 30.07 in 10.0 mi North - - N/A   Clear
10:33 AM 62.6 °F 50.0 °F 63% 30.08 in 10.0 mi NNW 6.9 mph - N/A   Clear
10:52 AM 64.4 °F 50.0 °F 59% 30.08 in 10.0 mi North - - N/A   Clear
11:13 AM 64.4 °F 50.0 °F 59% 30.08 in 10.0 mi NNW 9.2 mph - N/A   Clear
11:33 AM 66.2 °F 48.2 °F 52% 30.08 in 10.0 mi North 6.9 mph - N/A   Clear
11:53 AM 66.2 °F 51.8 °F 60% 30.08 in 10.0 mi North 8.1 mph - N/A   Clear
12:13 PM 66.2 °F 51.8 °F 60% 30.07 in 10.0 mi NE 4.6 mph - N/A   Clear
12:32 PM 68.0 °F 51.8 °F 56% 30.07 in 10.0 mi NNE 5.8 mph - N/A   Clear
12:53 PM 68.0 °F 50.0 °F 52% 30.07 in 10.0 mi NNE 6.9 mph - N/A   Clear
1:12 PM 66.2 °F 51.8 °F 60% 30.07 in 10.0 mi North 5.8 mph - N/A   Clear
1:33 PM 69.8 °F 51.8 °F 53% 30.06 in 10.0 mi NE 9.2 mph - N/A   Clear
1:53 PM 68.0 °F 51.8 °F 56% 30.06 in 10.0 mi NNE 8.1 mph - N/A   Clear
2:13 PM 69.8 °F 51.8 °F 53% 30.07 in 10.0 mi WNW 3.5 mph - N/A   Clear
2:33 PM 69.8 °F 51.8 °F 53% 30.07 in 10.0 mi North 3.5 mph - N/A   Clear
2:52 PM 69.8 °F 51.8 °F 53% 30.07 in 10.0 mi NNE 5.8 mph - N/A   Clear
3:13 PM 69.8 °F 51.8 °F 53% 30.08 in 10.0 mi North 6.9 mph - N/A   Clear
3:33 PM 69.8 °F 51.8 °F 53% 30.08 in 10.0 mi North 3.5 mph - N/A   Scattered Clouds
3:52 PM 69.8 °F 51.8 °F 53% 30.07 in 10.0 mi NNE 3.5 mph - N/A   Scattered Clouds
4:13 PM 69.8 °F 53.6 °F 56% 30.07 in 10.0 mi North 4.6 mph - N/A   Mostly Cloudy
4:33 PM 69.8 °F 51.8 °F 53% 30.07 in 10.0 mi NNE 6.9 mph - N/A   Scattered Clouds
4:53 PM 71.6 °F 50.0 °F 46% 30.06 in 10.0 mi NW 8.1 mph - N/A   Scattered Clouds
5:12 PM 71.6 °F 51.8 °F 50% 30.06 in 10.0 mi North 8.1 mph - N/A   Scattered Clouds
5:33 PM 69.8 °F 51.8 °F 53% 30.06 in 10.0 mi North 8.1 mph - N/A   Scattered Clouds
5:53 PM 69.8 °F 51.8 °F 53% 30.06 in 10.0 mi NNE 8.1 mph - N/A   Scattered Clouds
6:13 PM 69.8 °F 50.0 °F 49% 30.06 in 10.0 mi North 6.9 mph - N/A   Clear
6:32 PM 69.8 °F 51.8 °F 53% 30.06 in 10.0 mi NNE 4.6 mph - N/A   Clear
6:53 PM 69.8 °F 51.8 °F 53% 30.05 in 10.0 mi NNE 8.1 mph - N/A   Clear
7:13 PM 68.0 °F 51.8 °F 56% 30.06 in 10.0 mi NNE 5.8 mph - N/A   Clear
7:32 PM 69.8 °F 48.2 °F 46% 30.06 in 10.0 mi North 3.5 mph - N/A   Clear
7:53 PM 68.0 °F 51.8 °F 56% 30.06 in 10.0 mi North 4.6 mph - N/A   Clear
8:13 PM 66.2 °F 51.8 °F 60% 30.06 in 10.0 mi North 3.5 mph - N/A   Clear
8:32 PM 66.2 °F 50.0 °F 56% 30.06 in 10.0 mi Calm Calm - N/A   Clear
8:53 PM 60.8 °F 51.8 °F 72% 30.06 in 10.0 mi Calm Calm - N/A   Clear
9:12 PM 59.0 °F 51.8 °F 77% 30.06 in 10.0 mi Calm Calm - N/A   Clear
9:33 PM 57.2 °F 51.8 °F 82% 30.07 in 10.0 mi Calm Calm - N/A   Clear
9:52 PM 55.4 °F 51.8 °F 88% 30.08 in 10.0 mi Calm Calm - N/A   Clear
10:13 PM 55.4 °F 51.8 °F 88% 30.08 in 10.0 mi Calm Calm - N/A   Clear
10:32 PM 55.4 °F 51.8 °F 88% 30.08 in 10.0 mi Calm Calm - N/A   Clear
10:53 PM 53.6 °F 51.8 °F 94% 30.08 in 10.0 mi Calm Calm - N/A   Clear
11:13 PM 53.6 °F 51.8 °F 94% 30.08 in 10.0 mi Calm Calm - N/A   Clear
11:32 PM 53.6 °F 51.8 °F 94% 30.07 in 10.0 mi Calm Calm - N/A   Clear
11:52 PM 53.6 °F 50.0 °F 88% 30.08 in 10.0 mi Calm Calm - N/A   Clear